Miscellaneous Local Product
Issued by NWS North Platte, NE

Home | Current Version | Previous Version | Text Only | Print | Product List | Glossary On
Versions: 1 2 3 4 5 6 7 8 9 10 11 12 13 14 15 16 17 18 19 20 21 22 23 24 25 26 27 28 29 30 31 32 33 34 35 36 37 38 39 40 41 42 43 44 45 46 47 48 49 50
000
AXUS43 KLBF 220210
MISLBF


WESTERN AND NORTH CENTRAL NEBRASKA HOURLY WEATHER ROUNDUP
NATIONAL WEATHER SERVICE NORTH PLATTE NE
900 PM CDT TUE OCT 21 2014

***STATIONS NOT REPORTING VARIABLES SUCH AS SKY/WEATHER OR
PRESSURE ARE PROVIDED BY THE NEBRASKA DEPARTMENT OF
ROADS...RAWS...AND APRS NETWORKS...AND ARE NOT UNDER
NATIONAL WEATHER SERVICE QUALITY CONTROL***

...OBSERVATIONS IN AND NEAR THE EASTERN PANHANDLE OF NEBRASKA...

CITY           SKY/WX    TMP DP  RH WIND       PRES   REMARKS
PINE RIDGE     CLEAR     63  50  62 W3        29.82R
CHADRON        LGT RAIN  71  43  36 SW10G17   29.81S
ALLIANCE       MOCLDY    55  45  68 W9        29.87R
SIDNEY         PTCLDY    57  40  52 S9        29.90R
WHITECLAY        N/A     64  49  58 W14         N/A
RUSHVILLE        N/A     59  48  67 W9          N/A
CRESCENT LAKE    N/A     62  48  61 SE8         N/A
LISCO            N/A     66  36  32 E8          N/A
BIG SPRINGS      N/A     68  46  45 S6          N/A
LEWELLEN         N/A     73  46  38 S14         N/A
$$

...OBSERVATIONS IN NORTH CENTRAL NEBRASKA...

CITY           SKY/WX    TMP DP  RH WIND       PRES   REMARKS
VALENTINE      CLEAR     67  54  63 S15       29.85S
THEDFORD       PTCLDY    66  56  70 SE15      29.90R
AINSWORTH      PTCLDY    65  52  62 SE13      29.89S
O`NEILL        CLEAR     65  40  40 SE14      29.95R
ORD            CLEAR     65  51  60 SE12      29.94R
BROKEN BOW     CLEAR     64  53  67 SE12      29.94R
BROWNLEE         N/A     69  56  63 SE17        N/A
SPRINGVIEW       N/A     65  51  60 E3          N/A
BREWSTER         N/A     70  57  64 S15         N/A
ROSE             N/A     69  57  66 E16         N/A
NEWPORT          N/A     66  52  60 SE10        N/A
SARGENT          N/A     63  53  69 CALM        N/A
COMSTOCK         N/A     69  56  64 S15         N/A
CHAMBERS         N/A     59  42  53 S3          N/A
$$

...OBSERVATIONS IN SOUTHWEST NEBRASKA AND FAR NORTHEAST COLORADO...

CITY           SKY/WX    TMP DP  RH WIND       PRES   REMARKS
WRAY           FAIR      68  40  36 SE14G20   29.89S
HOLYOKE        FAIR      63  45  51 S7        29.89S
IMPERIAL       PTCLDY    65  49  56 SE10      29.90R
OGALLALA       CLEAR     68  53  58 SE12G17   29.88R
NORTH PLATTE   CLEAR     63  53  70 E9        29.90S
MCCOOK         PTCLDY    68  54  60 SE15      29.92R
LEXINGTON      CLEAR     67  58  74 SE14      29.93S
PAXTON           N/A     70  53  54 SE8         N/A
SUTHERLAND       N/A     68  56  63 S12         N/A
BRADY            N/A     66  56  70 CALM        N/A
GOTHENBURG       N/A     68  53  58 SE8         N/A
CALLAWAY         N/A     67  58  72 S14         N/A
$$

...SOME WEATHER OBSERVATIONS FROM AROUND THE REGION...

CITY           SKY/WX    TMP DP  RH WIND       PRES   REMARKS
DENVER         MOCLDY    66  37  34 SW7       29.93R
LARAMIE        CLOUDY    50  37  61 W10       30.06R
CHEYENNE       CLOUDY    58  36  43 W7        29.98R
SCOTTSBLUFF    MOCLDY    57  44  62 NE6       29.85F
RAPID CITY     PTCLDY    64  44  48 SW7       29.76R
PIERRE         PTCLDY    68  37  32 SE18      29.77R
WINNER         FAIR      70  48  45 S20G30    29.83S
SIOUX FALLS    CLEAR     61  42  49 SE15G22   30.00R
OMAHA          CLEAR     61  39  44 SE13      30.06R
GRAND ISLAND   CLEAR     65  49  56 SE10      29.98S
KANSAS CITY    CLEAR     61  43  51 E10       30.10R
WICHITA        CLEAR     70  59  68 SE10      30.03R
HAYS           CLEAR     64  52  63 SE10      29.99R
LIBERAL        CLEAR     64  48  55 SE12      30.02S
GOODLAND       CLEAR     62  46  55 S14       29.94R
$$



USA.gov is the U.S. government's official web portal to all federal, state and local government web resources and services.